Stündliche Wetter Holovashivka

Heute, 15 Juni, Dienstag

Zeit Temperatur Niederschläge Wind Luftdruck Luftfeuchtigkeit
00:00 +17°C° 0 mm 2 m/S 747 mmHg 90%
01:00 +17°C° 0 mm 2 m/S 747 mmHg 91%
02:00 +17°C° 0 mm 2 m/S 746 mmHg 92%
03:00 +17°C° 0 mm 2 m/S 746 mmHg 92%
04:00 +17°C° 0 mm 2 m/S 746 mmHg 93%
05:00 +17°C° 0 mm 2 m/S 746 mmHg 93%
06:00 +19°C° 0 mm 2 m/S 746 mmHg 88%
07:00 +21°C° 0 mm 2 m/S 747 mmHg 83%
08:00 +22°C° 0 mm 3 m/S 747 mmHg 79%
09:00 +24°C° 0.1 mm 3 m/S 746 mmHg 74%
10:00 +25°C° 0.1 mm 3 m/S 746 mmHg 70%
11:00 +26°C° 0.1 mm 3 m/S 746 mmHg 65%
12:00 +27°C° 0.2 mm 3 m/S 746 mmHg 65%
13:00 +27°C° 0.2 mm 3 m/S 745 mmHg 64%
14:00 +27°C° 0.2 mm 3 m/S 745 mmHg 63%
15:00 +26°C° 0.3 mm 3 m/S 745 mmHg 68%
16:00 +26°C° 0.3 mm 3 m/S 745 mmHg 72%
17:00 +25°C° 0.3 mm 3 m/S 744 mmHg 77%
18:00 +24°C° 0.2 mm 2 m/S 744 mmHg 80%
19:00 +23°C° 0.2 mm 2 m/S 744 mmHg 83%
20:00 +20°C° 0.2 mm 2 m/S 744 mmHg 86%
21:00 +20°C° 0.4 mm 2 m/S 744 mmHg 88%
22:00 +19°C° 0.4 mm 2 m/S 744 mmHg 90%
23:00 +18°C° 0.4 mm 2 m/S 744 mmHg 91%

Morgen, 16 Juni, Mittwoch

Zeit Temperatur Niederschläge Wind Luftdruck Luftfeuchtigkeit
00:00 +18°C° 0.2 mm 2 m/S 744 mmHg 92%
01:00 +18°C° 0.2 mm 2 m/S 744 mmHg 93%
02:00 +17°C° 0.2 mm 2 m/S 744 mmHg 93%
03:00 +17°C° 0.3 mm 2 m/S 744 mmHg 94%
04:00 +18°C° 0.3 mm 2 m/S 744 mmHg 94%
05:00 +18°C° 0.3 mm 2 m/S 744 mmHg 94%
06:00 +19°C° 0 mm 2 m/S 745 mmHg 89%
07:00 +21°C° 0 mm 2 m/S 745 mmHg 85%
08:00 +23°C° 0 mm 2 m/S 745 mmHg 80%
09:00 +24°C° 0.1 mm 3 m/S 745 mmHg 75%
10:00 +26°C° 0.1 mm 3 m/S 745 mmHg 71%
11:00 +27°C° 0.1 mm 3 m/S 745 mmHg 66%
12:00 +27°C° 0.7 mm 3 m/S 746 mmHg 66%
13:00 +27°C° 0.7 mm 3 m/S 746 mmHg 66%
14:00 +27°C° 0.7 mm 3 m/S 746 mmHg 67%
15:00 +26°C° 0.5 mm 3 m/S 746 mmHg 71%
16:00 +26°C° 0.5 mm 3 m/S 746 mmHg 75%
17:00 +25°C° 0.5 mm 4 m/S 746 mmHg 79%
18:00 +24°C° 0.6 mm 3 m/S 747 mmHg 83%
19:00 +22°C° 0.6 mm 3 m/S 747 mmHg 86%
20:00 +20°C° 0.6 mm 3 m/S 747 mmHg 90%
21:00 +20°C° 0 mm 3 m/S 748 mmHg 92%
22:00 +19°C° 0 mm 3 m/S 748 mmHg 93%
23:00 +19°C° 0 mm 3 m/S 748 mmHg 94%

übermorgen, 17 Juni, Donnerstag

Zeit Temperatur Niederschläge Wind Luftdruck Luftfeuchtigkeit
00:00 +18°C° 0 mm 3 m/S 748 mmHg 95%
01:00 +18°C° 0 mm 4 m/S 748 mmHg 95%
02:00 +18°C° 0 mm 4 m/S 749 mmHg 95%
03:00 +18°C° 0 mm 4 m/S 749 mmHg 95%
04:00 +18°C° 0 mm 4 m/S 749 mmHg 94%
05:00 +17°C° 0 mm 5 m/S 749 mmHg 93%
06:00 +19°C° 0 mm 5 m/S 750 mmHg 88%
07:00 +20°C° 0 mm 6 m/S 750 mmHg 84%
08:00 +21°C° 0 mm 6 m/S 750 mmHg 79%
09:00 +22°C° 0 mm 6 m/S 751 mmHg 74%
10:00 +23°C° 0 mm 6 m/S 751 mmHg 70%
11:00 +24°C° 0 mm 6 m/S 751 mmHg 66%
12:00 +24°C° 0 mm 6 m/S 751 mmHg 65%
13:00 +24°C° 0 mm 6 m/S 751 mmHg 65%
14:00 +24°C° 0 mm 6 m/S 751 mmHg 65%
15:00 +23°C° 0 mm 6 m/S 752 mmHg 66%
16:00 +23°C° 0 mm 6 m/S 752 mmHg 68%
17:00 +22°C° 0 mm 6 m/S 752 mmHg 69%
18:00 +21°C° 0 mm 5 m/S 753 mmHg 74%
19:00 +19°C° 0 mm 4 m/S 753 mmHg 79%
20:00 +18°C° 0 mm 4 m/S 753 mmHg 83%
21:00 +17°C° 0 mm 4 m/S 753 mmHg 84%
22:00 +17°C° 0 mm 4 m/S 753 mmHg 84%
23:00 +15°C° 0 mm 4 m/S 753 mmHg 84%

18 Juni, Freitag

Zeit Temperatur Niederschläge Wind Luftdruck Luftfeuchtigkeit
00:00 +15°C° 0 mm 4 m/S 754 mmHg 87%
01:00 +14°C° 0 mm 4 m/S 754 mmHg 89%
02:00 +13°C° 0 mm 4 m/S 754 mmHg 91%
03:00 +13°C° 0 mm 4 m/S 754 mmHg 89%
04:00 +13°C° 0 mm 4 m/S 754 mmHg 87%
05:00 +14°C° 0 mm 4 m/S 755 mmHg 85%
06:00 +15°C° 0 mm 4 m/S 755 mmHg 79%
07:00 +17°C° 0 mm 5 m/S 755 mmHg 74%
08:00 +20°C° 0 mm 5 m/S 755 mmHg 68%
09:00 +21°C° 0 mm 5 m/S 755 mmHg 65%
10:00 +22°C° 0 mm 6 m/S 755 mmHg 62%
11:00 +23°C° 0 mm 6 m/S 756 mmHg 58%
12:00 +23°C° 0 mm 6 m/S 756 mmHg 58%
13:00 +23°C° 0 mm 6 m/S 755 mmHg 58%
14:00 +23°C° 0 mm 5 m/S 755 mmHg 57%
15:00 +23°C° 0 mm 5 m/S 755 mmHg 61%
16:00 +23°C° 0 mm 5 m/S 755 mmHg 65%
17:00 +23°C° 0 mm 4 m/S 755 mmHg 69%
18:00 +21°C° 0 mm 4 m/S 755 mmHg 75%
19:00 +19°C° 0 mm 3 m/S 755 mmHg 81%
20:00 +18°C° 0 mm 3 m/S 755 mmHg 87%
21:00 +17°C° 0 mm 3 m/S 755 mmHg 88%
22:00 +16°C° 0 mm 3 m/S 756 mmHg 89%
23:00 +16°C° 0 mm 3 m/S 756 mmHg 90%

19 Juni, Samstag

Zeit Temperatur Niederschläge Wind Luftdruck Luftfeuchtigkeit
00:00 +14°C° 0 mm 3 m/S 756 mmHg 90%
01:00 +14°C° 0 mm 3 m/S 756 mmHg 90%
02:00 +13°C° 0 mm 3 m/S 756 mmHg 90%
03:00 +14°C° 0 mm 3 m/S 756 mmHg 89%
04:00 +14°C° 0 mm 3 m/S 756 mmHg 88%
05:00 +14°C° 0 mm 3 m/S 756 mmHg 87%
06:00 +17°C° 0 mm 3 m/S 756 mmHg 82%
07:00 +19°C° 0 mm 4 m/S 756 mmHg 76%
08:00 +20°C° 0 mm 4 m/S 757 mmHg 71%
09:00 +22°C° 0 mm 4 m/S 756 mmHg 67%
10:00 +23°C° 0 mm 4 m/S 756 mmHg 64%
11:00 +25°C° 0 mm 4 m/S 756 mmHg 61%
12:00 +25°C° 0 mm 4 m/S 756 mmHg 60%
13:00 +26°C° 0 mm 4 m/S 756 mmHg 58%
14:00 +26°C° 0 mm 4 m/S 755 mmHg 57%
15:00 +26°C° 0 mm 4 m/S 755 mmHg 60%
16:00 +25°C° 0 mm 3 m/S 755 mmHg 64%
17:00 +25°C° 0 mm 3 m/S 755 mmHg 67%
18:00 +22°C° 0 mm 3 m/S 755 mmHg 72%
19:00 +21°C° 0 mm 3 m/S 755 mmHg 78%
20:00 +19°C° 0 mm 3 m/S 755 mmHg 83%
21:00 +18°C° 0 mm 3 m/S 755 mmHg 86%
22:00 +17°C° 0 mm 3 m/S 755 mmHg 88%
23:00 +16°C° 0 mm 3 m/S 755 mmHg 91%

20 Juni, Sonntag

Zeit Temperatur Niederschläge Wind Luftdruck Luftfeuchtigkeit
00:00 +16°C° 0 mm 3 m/S 755 mmHg 91%
01:00 +14°C° 0 mm 3 m/S 755 mmHg 92%
02:00 +14°C° 0 mm 3 m/S 755 mmHg 92%
03:00 +15°C° 0 mm 2 m/S 755 mmHg 91%
04:00 +15°C° 0 mm 2 m/S 755 mmHg 90%
05:00 +16°C° 0 mm 2 m/S 755 mmHg 89%
06:00 +18°C° 0 mm 3 m/S 755 mmHg 83%
07:00 +19°C° 0 mm 3 m/S 755 mmHg 77%
08:00 +21°C° 0 mm 4 m/S 755 mmHg 71%
09:00 +22°C° 0 mm 4 m/S 755 mmHg 66%
10:00 +23°C° 0 mm 4 m/S 755 mmHg 62%
11:00 +26°C° 0 mm 4 m/S 754 mmHg 58%
12:00 +26°C° 0 mm 4 m/S 754 mmHg 57%
13:00 +26°C° 0 mm 4 m/S 754 mmHg 57%
14:00 +27°C° 0 mm 4 m/S 753 mmHg 56%
15:00 +27°C° 0 mm 4 m/S 753 mmHg 59%
16:00 +26°C° 0 mm 3 m/S 753 mmHg 63%
17:00 +26°C° 0 mm 3 m/S 753 mmHg 67%
18:00 +24°C° 0 mm 3 m/S 753 mmHg 73%
19:00 +22°C° 0 mm 3 m/S 753 mmHg 79%
20:00 +20°C° 0 mm 2 m/S 753 mmHg 85%
21:00 +19°C° 0 mm 2 m/S 753 mmHg 87%
22:00 +19°C° 0 mm 2 m/S 753 mmHg 89%
23:00 +18°C° 0 mm 2 m/S 753 mmHg 90%
Mehr zeigen

Wir brauchen deine Erlaubnis

Meteoprog und unser Service Anbieter werden persönliche Daten aufbewahren, so wie Cookies, Geräte Bezeichnung oder ähnliche Technologien von deinem Gerät und Prozess, so wie Persönliche Daten Inhalte und Werbungen, genauso wie social Media und den Verkehr zu analysieren.

  • Aufbewahrung und/oder Zugang zu deiner Geräte Informationen.

    Cookies, Geräte Bezeichnung oder andere Informationen, können aufbewahrt oder Zugang zu deinem Gerät erhalten, für den Grund, der oben angegeben wird.

  • Personalisierte Werbung und Inhalte, Messungen, Einblick in das Publikum und Produkt Entwicklung.

    Werbungen und Inhalte können personalisiert werden, basierend auf ein Profil. Mehr Daten können besser personalisierte Werbungen und Inhalte hinzufügen. Werbung und Inhalte können gezeigt und gemessen werden. Einblicke über das Publikum, welche die Werbung gesehen haben und den Inhalt, können abgeleitet werden. So wie Daten können genutzt werden, um es zu verbessern oder die Benutzer Erfahrung zu verbessern das System und die Software.

Wenn du “Ich stimme zu” klickst, erlaubst du uns, die Cookies zu benutzen die Geräte Bezeichnung, den Web oder ähnliche Technologien zu benutzen. Deine Settings, können in deinem Gerät bei deinem Browser geändert werden.

Für den bestimmten Zweck, berechtigten Interessen beruhen darauf, mehr als auf den Inhalt. Du kannst mehr darüber in unseren Privaten und Cookie Politik lesen.